Location: Banska Bystrica
(0.0000°N, 19.1500°E)
Time: 13:46:34
(UTC+02:00)

COSMOS 2455 - Pass Details

Date: 19 February 2019
Orbit: 900 x 909 km, 67.1° (Epoch: 18 October)

Event Time Altitude Azimuth Distance (km) Brightness Sun altitude
Rises 18:55:39 0° 7° (N) 3,510 5.7 -14.3°
Reaches altitude 10° 18:58:46 10° 23° (NNE) 2,574 4.9 -15.1°
Enters shadow 19:01:41 19° 51° (NE) 1,991 4.1 -15.8°
